This demonstration page uses our WeatherBlox Daily Observations layout. Learn more.

Left ArrowRight Arrow

40.92945, -100.16068

Hourly Observations for June 5, 2016

Temp ( °F °C ) Dew Point ( °F °C ) Humidity (%) Winds ( mph kmh ) Pressure ( in mb ) Visibility ( mi km ) Precip ( " mm )
12:15 am 00:15 Clear 56 13.6 48 9 74 74 N 5 7 30.09 1019 10 16 N/A
12:35 am 00:35 Clear 56 13.2 48 9 76 76 NNW 5 7 30.06 1018 10 16 N/A
12:55 am 00:55 Clear 55 12.5 48 8.7 78 78 NNW 6 9 30.06 1018 10 16 N/A
1:15 am 01:15 Clear 53 11.7 47 8.6 81 81 NNW 5 7 30.06 1018 10 16 N/A
1:35 am 01:35 Clear 53 11.7 47 8.3 80 80 Calm 30.06 1018 10 16 N/A
1:55 am 01:55 Clear 52 11 47 8.1 82 82 NW 5 7 30.06 1018 10 16 N/A
2:15 am 02:15 Clear 53 11.5 47 8.1 80 80 WNW 5 7 30.06 1018 10 16 N/A
2:35 am 02:35 Clear 51 10.7 47 8.2 85 85 W 6 9 30.06 1018 10 16 N/A
2:55 am 02:55 Clear 51 10.5 46 7.8 84 84 WNW 5 7 30.09 1019 10 16 N/A
3:15 am 03:15 Clear 51 10.5 46 7.9 84 84 W 6 9 30.09 1019 10 16 N/A
3:35 am 03:35 Clear 50 9.8 46 7.6 86 86 W 7 11 30.09 1019 10 16 N/A
3:55 am 03:55 Clear 50 10 46 7.9 87 87 WNW 5 7 30.09 1019 10 16 N/A
4:15 am 04:15 Clear 49 9.6 45 7.4 86 86 WNW 6 9 30.09 1019 10 16 N/A
4:35 am 04:35 Clear 49 9.5 46 7.6 88 88 W 8 13 30.09 1019 10 16 N/A
4:55 am 04:55 Clear 49 9.6 46 7.9 89 89 W 8 13 30.09 1019 10 16 N/A
5:15 am 05:15 Clear 49 9.5 46 7.6 88 88 W 7 11 30.09 1019 10 16 N/A
5:35 am 05:35 Clear 50 9.9 46 7.6 86 86 NW 5 7 30.09 1019 10 16 N/A
5:55 am 05:55 Clear 49 9.4 44 6.9 85 85 NW 6 9 30.09 1019 10 16 N/A
6:15 am 06:15 Sunny 48 8.8 44 6.7 87 87 WNW 5 7 30.09 1019 10 16 N/A
6:35 am 06:35 Sunny 49 9.2 45 7.1 87 87 W 7 11 30.09 1019 10 16 N/A
6:55 am 06:55 Sunny 50 10 46 8 88 88 WNW 6 9 30.12 1020 10 16 N/A
7:15 am 07:15 Sunny 52 11.1 47 8.5 84 84 WNW 8 13 30.09 1019 10 16 N/A
7:35 am 07:35 Sunny 54 12.3 48 8.7 79 79 WNW 8 13 30.09 1019 10 16 N/A
7:55 am 07:55 Sunny 56 13.2 49 9.4 78 78 WNW 8 13 30.09 1019 10 16 N/A
8:15 am 08:15 Sunny 58 14.2 49 9.7 75 75 W 7 11 30.06 1018 10 16 N/A
8:35 am 08:35 Sunny 59 15.2 50 9.8 70 70 WNW 8 13 30.06 1018 10 16 N/A
8:55 am 08:55 Sunny 62 16.5 50 10.2 67 67 W 7 11 30.06 1018 10 16 N/A
9:15 am 09:15 Sunny 64 17.6 51 10.4 63 63 W 6 9 30.03 1017 10 16 N/A
9:35 am 09:35 Sunny 66 18.7 51 10.7 60 60 WNW 7 11 30.00 1016 10 16 N/A
9:55 am 09:55 Sunny 68 20 52 11 56 56 W 7 11 30.00 1016 10 16 N/A
10:15 am 10:15 Sunny 70 21 51 10.6 52 52 WNW 9 15 29.97 1015 10 16 N/A
10:35 am 10:35 Sunny 71 21.6 50 10 48 48 WNW 7 11 29.97 1015 10 16 N/A
10:55 am 10:55 Sunny 73 22.5 49 9.5 44 44 W 8 13 29.97 1015 10 16 N/A
11:15 am 11:15 Sunny 73 22.7 47 8.3 40 40 W 7 11 29.97 1015 10 16 N/A
11:35 am 11:35 Sunny 74 23.2 48 9.1 41 41 WNW 5 7 29.97 1015 10 16 N/A
11:55 am 11:55 Sunny 74 23.5 46 7.7 36 36 W 6 9 29.97 1015 10 16 N/A
12:15 pm 12:15 Sunny 75 24.1 48 9 38 38 WNW 7 11 29.91 1013 10 16 N/A
12:35 pm 12:35 Sunny 76 24.5 45 7.3 33 33 WNW 6 9 29.91 1013 10 16 N/A
12:55 pm 12:55 Sunny 76 24.7 43 6.2 31 31 WNW 6 9 29.91 1013 10 16 N/A
1:15 pm 13:15 Sunny 77 25.2 42 5.7 29 29 NW 3 6 29.91 1013 10 16 N/A
1:35 pm 13:35 Sunny 78 25.5 45 7.2 31 31 NNW 5 7 29.91 1013 10 16 N/A
1:55 pm 13:55 Sunny 78 25.6 43 6.3 29 29 NNW 5 7 29.91 1013 10 16 N/A
2:15 pm 14:15 Sunny 79 26 42 5.6 27 27 WNW 5 7 29.91 1013 10 16 N/A
2:35 pm 14:35 Sunny 79 26.3 47 8.3 32 32 NW 7 11 29.91 1013 10 16 N/A
2:55 pm 14:55 Sunny 80 26.5 45 7 29 29 W 7 11 29.91 1013 10 16 N/A
3:15 pm 15:15 Sunny 80 26.7 46 7.7 30 30 W 6 9 29.91 1013 10 16 N/A
3:35 pm 15:35 Sunny 81 27 47 8.3 31 31 W 8 13 29.85 1011 10 16 N/A
3:55 pm 15:55 Sunny 82 27.5 46 7.9 29 29 WNW 7 11 29.85 1011 10 16 N/A
4:15 pm 16:15 Sunny 81 27.2 45 7.4 29 29 NW 6 9 29.85 1011 10 16 N/A
4:35 pm 16:35 Sunny 81 27.3 42 5.7 25 25 Calm 29.85 1011 10 16 N/A
5:15 pm 17:15 Sunny 82 27.5 48 8.9 31 31 WNW 6 9 29.85 1011 10 16 N/A
5:35 pm 17:35 Sunny 82 27.6 47 8.6 30 30 W 7 11 29.83 1010 10 16 N/A
5:55 pm 17:55 Sunny 82 27.5 47 8.2 30 30 Calm 29.83 1010 10 16 N/A
6:15 pm 18:15 Sunny 81 27.4 46 8 29 29 SW 6 9 29.83 1010 10 16 N/A
6:35 pm 18:35 Sunny 81 27.2 48 8.7 31 31 WNW 7 11 29.83 1010 10 16 N/A
6:55 pm 18:55 Sunny 81 27.3 47 8.3 30 30 W 6 9 29.83 1010 10 16 N/A
7:15 pm 19:15 Sunny 80 26.7 47 8.2 31 31 W 9 15 29.80 1009 10 16 N/A
7:35 pm 19:35 Sunny 80 26.7 47 8.4 31 31 WSW 6 9 29.80 1009 10 16 N/A
7:55 pm 19:55 Sunny 79 26.2 48 8.9 34 34 Calm 29.83 1010 10 16 N/A
8:15 pm 20:15 Sunny 79 25.9 50 9.8 36 36 Calm 29.83 1010 10 16 N/A
8:35 pm 20:35 Sunny 78 25.6 49 9.2 35 35 Calm 29.83 1010 10 16 N/A
8:55 pm 20:55 Sunny 76 24.4 46 8 35 35 Calm 29.85 1011 10 16 N/A
9:15 pm 21:15 Clear 74 23.3 50 10.1 43 43 NE 3 6 29.85 1011 10 16 N/A
9:35 pm 21:35 Clear 68 19.9 52 11.3 58 58 ENE 6 9 29.88 1012 10 16 N/A
9:55 pm 21:55 Clear 68 20.1 50 10 52 52 ENE 5 7 29.88 1012 10 16 N/A
10:15 pm 22:15 Clear 65 18.4 51 10.8 61 61 ENE 6 9 29.91 1013 10 16 N/A
10:35 pm 22:35 Clear 66 19 51 10.6 58 58 Calm 29.91 1013 7 11 N/A
10:55 pm 22:55 Clear 65 18.3 52 10.9 62 62 Calm 29.94 1014 10 16 N/A
11:15 pm 23:15 Clear 66 18.8 51 10.3 58 58 Calm 29.94 1014 10 16 N/A
11:35 pm 23:35 Clear 63 17.2 51 10.7 66 66 Calm 29.94 1014 10 16 N/A
11:55 pm 23:55 Clear 64 17.9 52 11 64 64 Calm 29.94 1014 10 16 N/A

Powered by AerisWeather